Location: Newark
(3.0500°N, 36.0167°E)
Time: 00:34:01
(UTC+00:00)

A-11 Canister half - Pass Details

Date: 28 August 2019
Orbit: 1527 x 1682 km, 47.3° (Epoch: 17 September)

Event Time Altitude Azimuth Distance (km) Brightness Sun altitude
Rises 06:19:13 0° 243° (WSW) 4,719 11.1 40.4°
Reaches altitude 10° 06:22:41 10° 253° (WSW) 3,753 10.7 41.2°
Maximum altitude 06:30:52 33° 313° (NW) 2,459 10.2 43.2°
Drops below altitude 10° 06:39:20 10° 13° (NNE) 3,855 11.5 45.3°
Sets 06:43:00 0° 23° (NNE) 4,862 11.9 46.2°
